| time (UTC) | temp F | wind direction | speed MPH | gust MPH | rain 1hr in | rain 24hr in | rain mn in | humidity % | barometer mb |
| 20260509120928 | 55 | 204 | 13.0 | 20.0 | 0.00 | 0.00 | 0.00 | 85 | 1005.1 |
| 20260509120426 | 55 | 159 | 13.0 | 14.0 | 0.00 | 0.00 | 0.00 | 85 | 1005.2 |
| 20260509115924 | 55 | 162 | 3.0 | 11.0 | 0.00 | 0.00 | 0.00 | 86 | 1005.2 |
| 20260509115420 | 55 | 203 | 11.0 | 11.0 | 0.00 | 0.00 | 0.00 | 86 | 1005.2 |
| 20260509114913 | 54 | 203 | 6.0 | 14.0 | 0.00 | 0.00 | 0.00 | 86 | 1005.5 |
| 20260509114411 | 54 | 192 | 5.0 | 11.0 | 0.00 | 0.00 | 0.00 | 86 | 1005.3 |
| 20260509113910 | 54 | 192 | 5.0 | 9.0 | 0.00 | 0.00 | 0.00 | 86 | 1005.2 |
| 20260509113407 | 54 | 187 | 3.0 | 11.0 | 0.00 | 0.00 | 0.00 | 85 | 1005.3 |
| 20260509112903 | 54 | 176 | 5.0 | 11.0 | 0.00 | 0.00 | 0.00 | 86 | 1005.1 |
| 20260509112400 | 54 | 197 | 8.0 | 15.0 | 0.00 | 0.00 | 0.00 | 85 | 1004.6 |
| 20260509111858 | 54 | 180 | 6.0 | 13.0 | 0.00 | 0.00 | 0.00 | 86 | 1004.6 |
| 20260509111354 | 54 | 179 | 5.0 | 12.0 | 0.00 | 0.00 | 0.00 | 86 | 1004.8 |
| 20260509110852 | 54 | 198 | 8.0 | 14.0 | 0.00 | 0.00 | 0.00 | 85 | 1004.6 |
| 20260509110348 | 54 | 204 | 9.0 | 17.0 | 0.00 | 0.00 | 0.00 | 85 | 1004.5 |
| 20260509105847 | 54 | 180 | 6.0 | 10.0 | 0.00 | 0.00 | 0.00 | 86 | 1004.6 |
| 20260509105344 | 54 | 203 | 13.0 | 13.0 | 0.00 | 0.00 | 0.00 | 86 | 1004.4 |
| 20260509104841 | 54 | 194 | 9.0 | 13.0 | 0.00 | 0.00 | 0.00 | 85 | 1004.3 |
| 20260509104337 | 54 | 197 | 8.0 | 12.0 | 0.00 | 0.00 | 0.00 | 85 | 1004.5 |
| 20260509103835 | 54 | 194 | 9.0 | 16.0 | 0.00 | 0.00 | 0.00 | 86 | 1004.3 |
| 20260509103332 | 54 | 164 | 11.0 | 14.0 | 0.00 | 0.00 | 0.00 | 86 | 1004.4 |
| 20260509102831 | 54 | 144 | 4.0 | 16.0 | 0.00 | 0.00 | 0.00 | 85 | 1004.3 |
| 20260509102328 | 54 | 190 | 7.0 | 14.0 | 0.00 | 0.00 | 0.00 | 85 | 1004.6 |
| 20260509101824 | 54 | 202 | 4.0 | 17.0 | 0.00 | 0.00 | 0.00 | 86 | 1004.4 |
| 20260509101320 | 54 | 195 | 5.0 | 14.0 | 0.00 | 0.00 | 0.00 | 86 | 1004.8 |
| 20260509100818 | 55 | 173 | 5.0 | 13.0 | 0.00 | 0.00 | 0.00 | 85 | 1004.5 |
| 20260509100315 | 55 | 189 | 6.0 | 13.0 | 0.00 | 0.00 | 0.00 | 85 | 1004.9 |
| 20260509095811 | 55 | 190 | 10.0 | 15.0 | 0.00 | 0.00 | 0.00 | 85 | 1004.6 |
| 20260509095309 | 54 | 209 | 2.0 | 10.0 | 0.00 | 0.00 | 0.00 | 85 | 1004.5 |
| 20260509094806 | 54 | 196 | 5.0 | 9.0 | 0.00 | 0.00 | 0.00 | 86 | 1004.6 |
| 20260509094302 | 54 | 182 | 5.0 | 13.0 | 0.00 | 0.00 | 0.00 | 86 | 1004.7 |
| 20260509093800 | 54 | 184 | 7.0 | 14.0 | 0.00 | 0.00 | 0.00 | 86 | 1004.6 |
| 20260509093257 | 54 | 165 | 4.0 | 9.0 | 0.00 | 0.00 | 0.00 | 87 | 1004.7 |
| 20260509092755 | 54 | 194 | 4.0 | 15.0 | 0.00 | 0.00 | 0.00 | 87 | 1004.8 |
| 20260509092253 | 54 | 185 | 4.0 | 11.0 | 0.00 | 0.00 | 0.00 | 86 | 1005.0 |
| 20260509091751 | 54 | 159 | 5.0 | 11.0 | 0.00 | 0.00 | 0.00 | 87 | 1004.9 |
| 20260509091247 | 54 | 181 | 11.0 | 16.0 | 0.00 | 0.00 | 0.00 | 87 | 1004.7 |
| 20260509090745 | 54 | 180 | 7.0 | 8.0 | 0.00 | 0.00 | 0.00 | 87 | 1004.8 |
| 20260509090242 | 54 | 185 | 5.0 | 12.0 | 0.00 | 0.00 | 0.00 | 87 | 1004.7 |
| 20260509085739 | 54 | 161 | 10.0 | 14.0 | 0.00 | 0.00 | 0.00 | 86 | 1004.9 |
| 20260509085237 | 54 | 171 | 8.0 | 11.0 | 0.00 | 0.00 | 0.00 | 86 | 1005.2 |
| 20260509084733 | 54 | 160 | 4.0 | 12.0 | 0.00 | 0.00 | 0.00 | 86 | 1005.2 |
| 20260509084230 | 54 | 184 | 7.0 | 16.0 | 0.00 | 0.00 | 0.00 | 86 | 1005.2 |
| 20260509083728 | 54 | 194 | 7.0 | 9.0 | 0.00 | 0.00 | 0.00 | 86 | 1004.9 |
| 20260509083224 | 54 | 167 | 9.0 | 11.0 | 0.00 | 0.00 | 0.00 | 87 | 1005.1 |
| 20260509082721 | 53 | 150 | 8.0 | 13.0 | 0.00 | 0.00 | 0.00 | 87 | 1004.9 |
| 20260509082218 | 54 | 143 | 5.0 | 11.0 | 0.00 | 0.00 | 0.00 | 87 | 1005.1 |
| 20260509081714 | 54 | 195 | 7.0 | 14.0 | 0.00 | 0.00 | 0.00 | 87 | 1005.1 |
| 20260509081212 | 54 | 200 | 13.0 | 14.0 | 0.00 | 0.00 | 0.00 | 87 | 1004.9 |
| 20260509080710 | 54 | 173 | 5.0 | 11.0 | 0.00 | 0.00 | 0.00 | 87 | 1005.2 |
| 20260509080208 | 53 | 161 | 4.0 | 13.0 | 0.00 | 0.00 | 0.00 | 87 | 1005.3 |
| 20260509075706 | 54 | 146 | 4.0 | 12.0 | 0.00 | 0.00 | 0.00 | 86 | 1005.0 |
| 20260509075203 | 54 | 197 | 10.0 | 12.0 | 0.00 | 0.00 | 0.00 | 87 | 1005.3 |
| 20260509074700 | 54 | 191 | 10.0 | 12.0 | 0.00 | 0.00 | 0.00 | 87 | 1005.1 |
| 20260509074156 | 54 | 183 | 4.0 | 12.0 | 0.00 | 0.00 | 0.00 | 86 | 1005.1 |
| 20260509073653 | 54 | 167 | 9.0 | 14.0 | 0.00 | 0.00 | 0.00 | 86 | 1005.1 |
| 20260509073149 | 54 | 186 | 4.0 | 13.0 | 0.00 | 0.00 | 0.00 | 86 | 1005.1 |
| 20260509072646 | 54 | 157 | 7.0 | 15.0 | 0.00 | 0.00 | 0.00 | 86 | 1005.3 |
| 20260509072143 | 54 | 164 | 7.0 | 18.0 | 0.00 | 0.00 | 0.00 | 86 | 1005.3 |
| 20260509071639 | 54 | 158 | 8.0 | 12.0 | 0.00 | 0.00 | 0.00 | 86 | 1005.3 |
| 20260509071137 | 54 | 185 | 4.0 | 12.0 | 0.00 | 0.00 | 0.00 | 87 | 1005.5 |
| 20260509070634 | 54 | 145 | 8.0 | 13.0 | 0.00 | 0.00 | 0.00 | 86 | 1005.7 |
| 20260509070130 | 54 | 168 | 5.0 | 11.0 | 0.00 | 0.00 | 0.00 | 87 | 1005.8 |
| 20260509065626 | 54 | 182 | 6.0 | 13.0 | 0.00 | 0.00 | 0.00 | 87 | 1006.0 |
| 20260509065123 | 54 | 184 | 4.0 | 15.0 | 0.00 | 0.00 | 0.00 | 87 | 1005.8 |
| 20260509064620 | 54 | 148 | 10.0 | 14.0 | 0.00 | 0.00 | 0.00 | 87 | 1005.8 |
| 20260509064118 | 54 | 169 | 6.0 | 15.0 | 0.00 | 0.00 | 0.00 | 87 | 1006.0 |
| 20260509063614 | 54 | 180 | 4.0 | 13.0 | 0.00 | 0.00 | 0.00 | 87 | 1006.0 |
| 20260509063111 | 54 | 164 | 9.0 | 11.0 | 0.00 | 0.00 | 0.00 | 87 | 1006.3 |
| 20260509062608 | 54 | 156 | 6.0 | 11.0 | 0.00 | 0.00 | 0.00 | 87 | 1006.5 |
| 20260509062105 | 54 | 174 | 4.0 | 10.0 | 0.00 | 0.00 | 0.00 | 87 | 1006.6 |
| 20260509061602 | 54 | 167 | 3.0 | 9.0 | 0.00 | 0.00 | 0.00 | 87 | 1006.4 |
| 20260509061059 | 54 | 182 | 6.0 | 12.0 | 0.00 | 0.00 | 0.00 | 86 | 1006.6 |
| 20260509060557 | 54 | 129 | 5.0 | 11.0 | 0.00 | 0.00 | 0.00 | 86 | 1006.8 |
| 20260509060052 | 54 | 177 | 5.0 | 11.0 | 0.00 | 0.00 | 0.00 | 87 | 1006.6 |
| 20260509055548 | 55 | 153 | 5.0 | 11.0 | 0.00 | 0.00 | 0.00 | 84 | 1006.8 |
| 20260509055044 | 55 | 133 | 6.0 | 12.0 | 0.00 | 0.00 | 0.00 | 85 | 1006.7 |
| 20260509054541 | 55 | 192 | 6.0 | 12.0 | 0.00 | 0.00 | 0.00 | 84 | 1006.7 |
| 20260509054039 | 55 | 183 | 7.0 | 11.0 | 0.00 | 0.00 | 0.00 | 84 | 1007.0 |
| 20260509053537 | 55 | 181 | 5.0 | 9.0 | 0.00 | 0.00 | 0.00 | 84 | 1006.7 |
| 20260509053034 | 55 | 172 | 2.0 | 10.0 | 0.00 | 0.00 | 0.00 | 82 | 1006.9 |
| 20260509052531 | 55 | 190 | 6.0 | 10.0 | 0.00 | 0.00 | 0.00 | 81 | 1006.9 |
| 20260509052029 | 55 | 175 | 10.0 | 11.0 | 0.00 | 0.00 | 0.00 | 82 | 1006.9 |
| 20260509051527 | 55 | 184 | 2.0 | 10.0 | 0.00 | 0.00 | 0.00 | 82 | 1006.9 |
| 20260509051024 | 56 | 143 | 3.0 | 9.0 | 0.00 | 0.00 | 0.00 | 82 | 1006.8 |
| 20260509050520 | 56 | 167 | 8.0 | 11.0 | 0.00 | 0.00 | 0.00 | 80 | 1006.8 |
| 20260509050012 | 56 | 174 | 6.0 | 14.0 | 0.00 | 0.00 | 0.00 | 79 | 1006.8 |
| 20260509045509 | 56 | 130 | 6.0 | 15.0 | 0.00 | 0.00 | 0.00 | 78 | 1006.8 |
| 20260509045006 | 56 | 171 | 5.0 | 14.0 | 0.00 | 0.00 | 0.00 | 79 | 1006.7 |
| 20260509044504 | 56 | 151 | 5.0 | 12.0 | 0.00 | 0.00 | 0.00 | 77 | 1006.6 |
| 20260509044001 | 56 | 152 | 5.0 | 11.0 | 0.00 | 0.00 | 0.00 | 78 | 1006.7 |
| 20260509043456 | 55 | 179 | 7.0 | 11.0 | 0.00 | 0.00 | 0.00 | 77 | 1006.7 |
| 20260509042951 | 55 | 176 | 5.0 | 9.0 | 0.00 | 0.00 | 0.00 | 78 | 1006.4 |
| 20260509042449 | 55 | 151 | 6.0 | 10.0 | 0.00 | 0.00 | 0.00 | 77 | 1006.6 |
| 20260509041945 | 55 | 141 | 5.0 | 13.0 | 0.00 | 0.00 | 0.00 | 76 | 1006.5 |
| 20260509041442 | 55 | 141 | 10.0 | 11.0 | 0.00 | 0.00 | 0.00 | 76 | 1006.4 |
| 20260509040940 | 55 | 140 | 7.0 | 14.0 | 0.00 | 0.00 | 0.00 | 76 | 1006.7 |
| 20260509040438 | 55 | 152 | 5.0 | 11.0 | 0.00 | 0.00 | 0.00 | 75 | 1006.8 |
| 20260509035934 | 54 | 143 | 8.0 | 12.0 | 0.00 | 0.00 | 0.00 | 75 | 1006.9 |
| 20260509035431 | 54 | 166 | 2.0 | 11.0 | 0.00 | 0.00 | 0.00 | 75 | 1006.9 |
| 20260509034927 | 54 | 131 | 5.0 | 10.0 | 0.00 | 0.00 | 0.00 | 75 | 1006.9 |
| 20260509034426 | 54 | 131 | 6.0 | 10.0 | 0.00 | 0.00 | 0.00 | 75 | 1007.0 |
| 20260509033922 | 53 | 135 | 13.0 | 13.0 | 0.00 | 0.00 | 0.00 | 75 | 1007.0 |
| 20260509033419 | 53 | 122 | 4.0 | 9.0 | 0.00 | 0.00 | 0.00 | 76 | 1006.8 |
| 20260509032916 | 53 | 113 | 3.0 | 9.0 | 0.00 | 0.00 | 0.00 | 76 | 1007.0 |
| 20260509032413 | 53 | 106 | 4.0 | 9.0 | 0.00 | 0.00 | 0.00 | 76 | 1006.8 |
| 20260509031911 | 53 | 122 | 4.0 | 9.0 | 0.00 | 0.00 | 0.00 | 76 | 1007.1 |
| 20260509031408 | 53 | 144 | 5.0 | 14.0 | 0.00 | 0.00 | 0.00 | 75 | 1007.0 |
| 20260509030906 | 53 | 128 | 9.0 | 9.0 | 0.00 | 0.00 | 0.00 | 76 | 1007.0 |
| 20260509030404 | 53 | 111 | 4.0 | 7.0 | 0.00 | 0.00 | 0.00 | 76 | 1007.0 |
| 20260509025901 | 53 | 134 | 7.0 | 8.0 | 0.00 | 0.00 | 0.00 | 75 | 1007.1 |
| 20260509025356 | 53 | 124 | 4.0 | 10.0 | 0.00 | 0.00 | 0.00 | 75 | 1007.1 |
| 20260509024851 | 53 | 137 | 6.0 | 9.0 | 0.00 | 0.00 | 0.00 | 75 | 1007.1 |
| 20260509024348 | 53 | 113 | 3.0 | 10.0 | 0.00 | 0.00 | 0.00 | 75 | 1007.1 |
| 20260509023845 | 53 | 102 | 3.0 | 8.0 | 0.00 | 0.00 | 0.00 | 74 | 1007.2 |
| 20260509023342 | 53 | 125 | 3.0 | 7.0 | 0.00 | 0.00 | 0.00 | 75 | 1007.4 |
| 20260509022838 | 53 | 118 | 4.0 | 9.0 | 0.00 | 0.00 | 0.00 | 74 | 1007.2 |
| 20260509022336 | 53 | 110 | 3.0 | 7.0 | 0.00 | 0.00 | 0.00 | 73 | 1007.3 |
| 20260509021833 | 53 | 108 | 5.0 | 7.0 | 0.00 | 0.00 | 0.00 | 73 | 1007.8 |
| 20260509021330 | 53 | 124 | 5.0 | 6.0 | 0.00 | 0.00 | 0.00 | 73 | 1007.2 |
| 20260509020827 | 53 | 108 | 3.0 | 7.0 | 0.00 | 0.00 | 0.00 | 72 | 1007.3 |
| 20260509020325 | 53 | 117 | 4.0 | 6.0 | 0.00 | 0.00 | 0.00 | 72 | 1007.2 |
| 20260509015822 | 53 | 103 | 3.0 | 7.0 | 0.00 | 0.00 | 0.00 | 71 | 1007.4 |
| 20260509015320 | 53 | 121 | 4.0 | 7.0 | 0.00 | 0.00 | 0.00 | 71 | 1007.2 |
| 20260509014817 | 54 | 106 | 4.0 | 6.0 | 0.00 | 0.00 | 0.00 | 71 | 1007.5 |
| 20260509014314 | 54 | 92 | 3.0 | 5.0 | 0.00 | 0.00 | 0.00 | 70 | 1007.3 |
| 20260509013810 | 54 | 127 | 2.0 | 5.0 | 0.00 | 0.00 | 0.00 | 69 | 1007.4 |
| 20260509013306 | 54 | 121 | 4.0 | 6.0 | 0.00 | 0.00 | 0.00 | 69 | 1007.5 |
| 20260509012757 | 54 | 104 | 3.0 | 4.0 | 0.00 | 0.00 | 0.00 | 69 | 1007.6 |
| 20260509012254 | 54 | 87 | 2.0 | 4.0 | 0.00 | 0.00 | 0.00 | 68 | 1007.6 |
| 20260509011751 | 55 | 83 | 2.0 | 5.0 | 0.00 | 0.00 | 0.00 | 67 | 1007.5 |
| 20260509011249 | 55 | 93 | 3.0 | 4.0 | 0.00 | 0.00 | 0.00 | 67 | 1007.5 |
| 20260509010746 | 55 | 92 | 2.0 | 5.0 | 0.00 | 0.00 | 0.00 | 67 | 1007.4 |
| 20260509010242 | 55 | 89 | 3.0 | 8.0 | 0.00 | 0.00 | 0.00 | 66 | 1007.5 |
| 20260509005740 | 55 | 93 | 3.0 | 5.0 | 0.00 | 0.00 | 0.00 | 66 | 1007.6 |
| 20260509005237 | 56 | 113 | 2.0 | 6.0 | 0.00 | 0.00 | 0.00 | 64 | 1007.4 |
| 20260509004731 | 56 | 104 | 2.0 | 5.0 | 0.00 | 0.00 | 0.00 | 64 | 1007.5 |
| 20260509004229 | 56 | 108 | 3.0 | 7.0 | 0.00 | 0.00 | 0.00 | 64 | 1007.4 |
| 20260509003727 | 57 | 103 | 2.0 | 7.0 | 0.00 | 0.00 | 0.00 | 64 | 1007.3 |
| 20260509003225 | 57 | 91 | 3.0 | 10.0 | 0.00 | 0.00 | 0.00 | 64 | 1007.5 |
| 20260509002722 | 58 | 123 | 6.0 | 12.0 | 0.00 | 0.00 | 0.00 | 63 | 1007.3 |
| 20260509002219 | 58 | 68 | 3.0 | 9.0 | 0.00 | 0.00 | 0.00 | 61 | 1007.5 |
| 20260509001717 | 58 | 108 | 3.0 | 8.0 | 0.00 | 0.00 | 0.00 | 64 | 1007.8 |
| 20260509001213 | 59 | 110 | 3.0 | 9.0 | 0.00 | 0.00 | 0.00 | 61 | 1007.8 |
| 20260509000711 | 59 | 94 | 3.0 | 13.0 | 0.00 | 0.00 | 0.00 | 61 | 1007.6 |
| 20260509000208 | 59 | 114 | 0.0 | 6.0 | 0.00 | 0.00 | 0.00 | 61 | 1007.5 |
| 20260508235705 | 59 | 130 | 4.0 | 7.0 | 0.00 | 0.00 | 0.00 | 60 | 1007.5 |
| 20260508235201 | 59 | 93 | 3.0 | 13.0 | 0.00 | 0.00 | 0.00 | 61 | 1007.5 |
| 20260508234658 | 60 | 138 | 5.0 | 10.0 | 0.00 | 0.00 | 0.00 | 60 | 1007.9 |
| 20260508234154 | 60 | 46 | 7.0 | 7.0 | 0.00 | 0.00 | 0.00 | 59 | 1007.9 |
| 20260508233648 | 60 | 113 | 4.0 | 10.0 | 0.00 | 0.00 | 0.00 | 59 | 1008.0 |
| 20260508233146 | 60 | 116 | 5.0 | 13.0 | 0.00 | 0.00 | 0.00 | 60 | 1007.9 |
| 20260508232643 | 60 | 102 | 5.0 | 14.0 | 0.00 | 0.00 | 0.00 | 58 | 1008.0 |
| 20260508232139 | 60 | 138 | 12.0 | 16.0 | 0.00 | 0.00 | 0.00 | 57 | 1008.1 |
| 20260508231638 | 61 | 103 | 4.0 | 7.0 | 0.00 | 0.00 | 0.00 | 55 | 1008.0 |
| 20260508231134 | 60 | 62 | 5.0 | 13.0 | 0.00 | 0.00 | 0.00 | 53 | 1008.1 |
| 20260508230630 | 60 | 69 | 4.0 | 11.0 | 0.00 | 0.00 | 0.00 | 54 | 1008.3 |
| 20260508230127 | 60 | 104 | 8.0 | 18.0 | 0.00 | 0.00 | 0.00 | 53 | 1008.0 |
| 20260508225625 | 61 | 83 | 3.0 | 10.0 | 0.00 | 0.00 | 0.00 | 51 | 1007.9 |
| 20260508225121 | 61 | 125 | 4.0 | 8.0 | 0.00 | 0.00 | 0.00 | 52 | 1008.2 |
| 20260508224619 | 61 | 116 | 11.0 | 12.0 | 0.00 | 0.00 | 0.00 | 50 | 1008.1 |
| 20260508224116 | 61 | 134 | 8.0 | 13.0 | 0.00 | 0.00 | 0.00 | 50 | 1008.4 |
| 20260508223614 | 60 | 111 | 5.0 | 12.0 | 0.00 | 0.00 | 0.00 | 48 | 1008.2 |
| 20260508223111 | 60 | 54 | 2.0 | 13.0 | 0.00 | 0.00 | 0.00 | 53 | 1008.3 |
| 20260508222608 | 59 | 117 | 5.0 | 14.0 | 0.00 | 0.00 | 0.00 | 51 | 1008.2 |
| 20260508222105 | 59 | 99 | 3.0 | 11.0 | 0.00 | 0.00 | 0.00 | 50 | 1008.3 |
| 20260508221601 | 60 | 117 | 6.0 | 20.0 | 0.00 | 0.00 | 0.00 | 49 | 1008.2 |
| 20260508221057 | 62 | 116 | 4.0 | 10.0 | 0.00 | 0.00 | 0.00 | 47 | 1008.2 |
| 20260508220554 | 61 | 96 | 2.0 | 13.0 | 0.00 | 0.00 | 0.00 | 45 | 1008.4 |
| 20260508220050 | 62 | 102 | 8.0 | 13.0 | 0.00 | 0.00 | 0.00 | 45 | 1008.5 |
| 20260508215547 | 61 | 60 | 6.0 | 9.0 | 0.00 | 0.00 | 0.00 | 43 | 1008.5 |
| 20260508215044 | 61 | 118 | 5.0 | 17.0 | 0.00 | 0.00 | 0.00 | 45 | 1008.3 |
| 20260508214541 | 63 | 113 | 7.0 | 12.0 | 0.00 | 0.00 | 0.00 | 42 | 1008.5 |
| 20260508214037 | 62 | 117 | 3.0 | 12.0 | 0.00 | 0.00 | 0.00 | 43 | 1008.3 |
| 20260508213535 | 62 | 95 | 5.0 | 14.0 | 0.00 | 0.00 | 0.00 | 40 | 1008.2 |
| 20260508213030 | 62 | 76 | 5.0 | 12.0 | 0.00 | 0.00 | 0.00 | 46 | 1008.4 |
| 20260508212528 | 61 | 60 | 6.0 | 14.0 | 0.00 | 0.00 | 0.00 | 41 | 1008.6 |
| 20260508212024 | 62 | 25 | 5.0 | 13.0 | 0.00 | 0.00 | 0.00 | 41 | 1008.4 |
| 20260508211520 | 62 | 149 | 6.0 | 9.0 | 0.00 | 0.00 | 0.00 | 43 | 1008.5 |
| 20260508211016 | 62 | 128 | 6.0 | 13.0 | 0.00 | 0.00 | 0.00 | 39 | 1008.5 |
| 20260508210513 | 63 | 142 | 12.0 | 12.0 | 0.00 | 0.00 | 0.00 | 40 | 1008.6 |
| 20260508210010 | 63 | 61 | 6.0 | 13.0 | 0.00 | 0.00 | 0.00 | 37 | 1008.9 |
| 20260508205507 | 62 | 136 | 5.0 | 17.0 | 0.00 | 0.00 | 0.00 | 38 | 1008.9 |
| 20260508205003 | 63 | 59 | 4.0 | 15.0 | 0.00 | 0.00 | 0.00 | 36 | 1008.9 |
| 20260508204500 | 63 | 113 | 5.0 | 16.0 | 0.00 | 0.00 | 0.00 | 36 | 1008.9 |
| 20260508203955 | 64 | 103 | 4.0 | 9.0 | 0.00 | 0.00 | 0.00 | 37 | 1009.0 |
| 20260508203452 | 63 | 117 | 5.0 | 15.0 | 0.00 | 0.00 | 0.00 | 36 | 1009.3 |
| 20260508202948 | 63 | 113 | 3.0 | 10.0 | 0.00 | 0.00 | 0.00 | 38 | 1009.3 |
| 20260508202445 | 63 | 114 | 6.0 | 12.0 | 0.00 | 0.00 | 0.00 | 37 | 1009.2 |
| 20260508201942 | 63 | 128 | 3.0 | 13.0 | 0.00 | 0.00 | 0.00 | 41 | 1009.2 |
| 20260508201439 | 63 | 37 | 8.0 | 11.0 | 0.00 | 0.00 | 0.00 | 36 | 1009.4 |
| 20260508200935 | 63 | 41 | 11.0 | 11.0 | 0.00 | 0.00 | 0.00 | 37 | 1009.4 |
| 20260508200433 | 64 | 82 | 3.0 | 12.0 | 0.00 | 0.00 | 0.00 | 37 | 1009.4 |
| 20260508195927 | 64 | 53 | 4.0 | 7.0 | 0.00 | 0.00 | 0.00 | 37 | 1009.4 |
| 20260508195425 | 64 | 57 | 11.0 | 12.0 | 0.00 | 0.00 | 0.00 | 38 | 1009.7 |
| 20260508194921 | 63 | 84 | 2.0 | 14.0 | 0.00 | 0.00 | 0.00 | 37 | 1009.5 |
| 20260508194418 | 63 | 67 | 4.0 | 10.0 | 0.00 | 0.00 | 0.00 | 40 | 1009.8 |
| 20260508193915 | 63 | 98 | 5.0 | 8.0 | 0.00 | 0.00 | 0.00 | 41 | 1009.7 |
| 20260508193412 | 63 | 281 | 2.0 | 12.0 | 0.00 | 0.00 | 0.00 | 40 | 1009.9 |
| 20260508192908 | 64 | 128 | 9.0 | 12.0 | 0.00 | 0.00 | 0.00 | 40 | 1010.0 |
| 20260508192405 | 64 | 84 | 2.0 | 8.0 | 0.00 | 0.00 | 0.00 | 44 | 1009.9 |
| 20260508191902 | 63 | 134 | 9.0 | 14.0 | 0.00 | 0.00 | 0.00 | 40 | 1010.0 |
| 20260508191359 | 62 | 136 | 11.0 | 19.0 | 0.00 | 0.00 | 0.00 | 40 | 1010.1 |
| 20260508190856 | 63 | 96 | 7.0 | 11.0 | 0.00 | 0.00 | 0.00 | 40 | 1010.1 |
| 20260508190353 | 64 | 45 | 4.0 | 6.0 | 0.00 | 0.00 | 0.00 | 42 | 1010.1 |
| 20260508185849 | 62 | 130 | 11.0 | 14.0 | 0.00 | 0.00 | 0.00 | 40 | 1010.2 |
| 20260508185347 | 62 | 119 | 6.0 | 16.0 | 0.00 | 0.00 | 0.00 | 41 | 1010.5 |
| 20260508184844 | 63 | 71 | 3.0 | 11.0 | 0.00 | 0.00 | 0.00 | 44 | 1010.5 |
| 20260508184341 | 63 | 106 | 4.0 | 11.0 | 0.00 | 0.00 | 0.00 | 40 | 1010.4 |
| 20260508183838 | 62 | 112 | 6.0 | 12.0 | 0.00 | 0.00 | 0.00 | 40 | 1010.7 |
| 20260508183334 | 62 | 136 | 11.0 | 15.0 | 0.00 | 0.00 | 0.00 | 40 | 1010.6 |
| 20260508182830 | 62 | 155 | 6.0 | 10.0 | 0.00 | 0.00 | 0.00 | 41 | 1010.7 |
| 20260508182327 | 63 | 97 | 3.0 | 8.0 | 0.00 | 0.00 | 0.00 | 42 | 1010.8 |
| 20260508181823 | 63 | 79 | 4.0 | 13.0 | 0.00 | 0.00 | 0.00 | 40 | 1010.7 |
| 20260508181320 | 63 | 105 | 3.0 | 8.0 | 0.00 | 0.00 | 0.00 | 42 | 1010.8 |
| 20260508180817 | 62 | 49 | 1.0 | 8.0 | 0.00 | 0.00 | 0.00 | 44 | 1010.7 |
| 20260508180314 | 62 | 113 | 5.0 | 6.0 | 0.00 | 0.00 | 0.00 | 41 | 1011.2 |
| 20260508175810 | 62 | 105 | 3.0 | 13.0 | 0.00 | 0.00 | 0.00 | 40 | 1011.2 |
| 20260508175307 | 62 | 134 | 10.0 | 13.0 | 0.00 | 0.00 | 0.00 | 42 | 1011.2 |
| 20260508174805 | 63 | 127 | 6.0 | 9.0 | 0.00 | 0.00 | 0.00 | 42 | 1011.2 |
| 20260508174302 | 63 | 341 | 5.0 | 7.0 | 0.00 | 0.00 | 0.00 | 37 | 1011.2 |
| 20260508173758 | 62 | 38 | 3.0 | 10.0 | 0.00 | 0.00 | 0.00 | 37 | 1011.5 |
| 20260508173255 | 63 | 145 | 5.0 | 11.0 | 0.00 | 0.00 | 0.00 | 37 | 1011.4 |
| 20260508172751 | 63 | 150 | 10.0 | 10.0 | 0.00 | 0.00 | 0.00 | 35 | 1011.4 |
| 20260508172248 | 62 | 97 | 2.0 | 7.0 | 0.00 | 0.00 | 0.00 | 39 | 1011.6 |
| 20260508171744 | 63 | 180 | 4.0 | 6.0 | 0.00 | 0.00 | 0.00 | 37 | 1011.7 |
| 20260508171240 | 61 | 4 | 0.0 | 8.0 | 0.00 | 0.00 | 0.00 | 41 | 1011.8 |
| 20260508170738 | 61 | 205 | 9.0 | 11.0 | 0.00 | 0.00 | 0.00 | 36 | 1011.8 |
| 20260508170236 | 62 | 201 | 6.0 | 9.0 | 0.00 | 0.00 | 0.00 | 37 | 1011.8 |
| 20260508165732 | 62 | 127 | 3.0 | 5.0 | 0.00 | 0.00 | 0.00 | 38 | 1011.6 |
| 20260508165229 | 61 | 200 | 4.0 | 8.0 | 0.00 | 0.00 | 0.00 | 37 | 1011.9 |
| 20260508164726 | 60 | 150 | 8.0 | 13.0 | 0.00 | 0.00 | 0.00 | 41 | 1012.0 |
| 20260508164222 | 60 | 119 | 6.0 | 11.0 | 0.00 | 0.00 | 0.00 | 40 | 1012.3 |
| 20260508163720 | 60 | 148 | 5.0 | 11.0 | 0.00 | 0.00 | 0.00 | 40 | 1012.5 |
| 20260508163218 | 61 | 141 | 7.0 | 14.0 | 0.00 | 0.00 | 0.00 | 43 | 1012.3 |
| 20260508162713 | 61 | 140 | 7.0 | 11.0 | 0.00 | 0.00 | 0.00 | 45 | 1012.5 |
| 20260508162211 | 60 | 135 | 0.0 | 7.0 | 0.00 | 0.00 | 0.00 | 48 | 1012.7 |
| 20260508161708 | 61 | 139 | 5.0 | 7.0 | 0.00 | 0.00 | 0.00 | 46 | 1012.3 |
| 20260508161205 | 61 | 96 | 3.0 | 9.0 | 0.00 | 0.00 | 0.00 | 48 | 1012.5 |
| 20260508160703 | 61 | 127 | 5.0 | 10.0 | 0.00 | 0.00 | 0.00 | 47 | 1012.4 |
| 20260508160200 | 60 | 218 | 0.0 | 7.0 | 0.00 | 0.00 | 0.00 | 44 | 1012.7 |
| 20260508155657 | 60 | 155 | 3.0 | 7.0 | 0.00 | 0.00 | 0.00 | 45 | 1012.6 |
| 20260508155154 | 59 | 152 | 2.0 | 7.0 | 0.00 | 0.00 | 0.00 | 45 | 1012.9 |
| 20260508154651 | 60 | 255 | 3.0 | 8.0 | 0.00 | 0.00 | 0.00 | 45 | 1012.8 |
| 20260508154148 | 59 | 197 | 5.0 | 10.0 | 0.00 | 0.00 | 0.00 | 44 | 1012.9 |
| 20260508153645 | 60 | 92 | 4.0 | 9.0 | 0.00 | 0.00 | 0.00 | 49 | 1012.8 |
| 20260508153142 | 61 | 143 | 3.0 | 6.0 | 0.00 | 0.00 | 0.00 | 47 | 1012.6 |
| 20260508152638 | 60 | 131 | 4.0 | 9.0 | 0.00 | 0.00 | 0.00 | 49 | 1012.8 |
| 20260508152133 | 58 | 250 | 3.0 | 6.0 | 0.00 | 0.00 | 0.00 | 55 | 1012.8 |
| 20260508151630 | 58 | 131 | 11.0 | 12.0 | 0.00 | 0.00 | 0.00 | 48 | 1012.9 |
| 20260508151127 | 59 | 182 | 3.0 | 6.0 | 0.00 | 0.00 | 0.00 | 47 | 1012.8 |
| 20260508150624 | 59 | 133 | 2.0 | 5.0 | 0.00 | 0.00 | 0.00 | 49 | 1012.7 |
| 20260508150121 | 58 | 303 | 2.0 | 6.0 | 0.00 | 0.00 | 0.00 | 50 | 1013.0 |
| 20260508145617 | 59 | 127 | 4.0 | 5.0 | 0.00 | 0.00 | 0.00 | 50 | 1013.1 |
| 20260508145113 | 58 | 149 | 3.0 | 7.0 | 0.00 | 0.00 | 0.00 | 46 | 1013.0 |
| 20260508144611 | 57 | 150 | 4.0 | 9.0 | 0.00 | 0.00 | 0.00 | 51 | 1013.0 |
| 20260508144108 | 58 | 81 | 4.0 | 6.0 | 0.00 | 0.00 | 0.00 | 54 | 1013.1 |
| 20260508143606 | 56 | 13 | 0.0 | 9.0 | 0.00 | 0.00 | 0.00 | 52 | 1013.0 |
| 20260508143102 | 57 | 150 | 4.0 | 7.0 | 0.00 | 0.00 | 0.00 | 59 | 1013.1 |
| 20260508142559 | 56 | 99 | 3.0 | 9.0 | 0.00 | 0.00 | 0.00 | 63 | 1012.9 |
| 20260508142056 | 57 | 119 | 2.0 | 5.0 | 0.00 | 0.00 | 0.00 | 61 | 1012.7 |
| 20260508141552 | 56 | 123 | 5.0 | 7.0 | 0.00 | 0.00 | 0.00 | 64 | 1013.1 |
| 20260508141050 | 56 | 86 | 1.0 | 5.0 | 0.00 | 0.00 | 0.00 | 67 | 1012.9 |
| 20260508140547 | 57 | 113 | 3.0 | 5.0 | 0.00 | 0.00 | 0.00 | 64 | 1013.0 |
| 20260508140044 | 57 | 274 | 0.0 | 2.0 | 0.00 | 0.00 | 0.00 | 64 | 1012.9 |
| 20260508135539 | 57 | 96 | 1.0 | 5.0 | 0.00 | 0.00 | 0.00 | 69 | 1012.9 |
| 20260508135036 | 56 | 150 | 0.0 | 3.0 | 0.00 | 0.00 | 0.00 | 68 | 1013.1 |
| 20260508134532 | 55 | 148 | 2.0 | 3.0 | 0.02 | 0.00 | 0.00 | 69 | 1013.0 |
| 20260508134029 | 54 | 124 | 1.0 | 4.0 | 0.02 | 0.00 | 0.00 | 70 | 1013.4 |
| 20260508133526 | 55 | 97 | 1.0 | 4.0 | 0.00 | 0.00 | 0.00 | 70 | 1013.4 |
| 20260508133024 | 54 | 53 | 2.0 | 4.0 | 0.00 | 0.00 | 0.00 | 72 | 1012.9 |
| 20260508132521 | 53 | 40 | 2.0 | 4.0 | 0.00 | 0.00 | 0.00 | 73 | 1013.5 |
| 20260508132018 | 52 | 12 | 3.0 | 5.0 | 0.00 | 0.00 | 0.00 | 74 | 1013.2 |
| 20260508131513 | 53 | 51 | 0.0 | 3.0 | 0.00 | 0.00 | 0.00 | 76 | 1013.3 |
| 20260508131010 | 52 | 70 | 3.0 | 4.0 | 0.00 | 0.00 | 0.00 | 77 | 1013.3 |
| 20260508130508 | 51 | 104 | 2.0 | 4.0 | 0.00 | 0.00 | 0.00 | 83 | 1013.5 |
| 20260508130003 | 49 | 28 | 2.0 | 3.0 | 0.00 | 0.00 | 0.00 | 97 | 1013.5 |
| 20260508125459 | 48 | 84 | 1.0 | 3.0 | 0.00 | 0.00 | 0.00 | 99 | 1013.4 |
| 20260508124957 | 46 | 51 | 2.0 | 4.0 | 0.00 | 0.00 | 0.00 | 99 | 1013.5 |
| 20260508124454 | 45 | 41 | 0.0 | 3.0 | 0.00 | 0.00 | 0.00 | 99 | 1013.3 |
| 20260508123951 | 45 | 31 | 4.0 | 6.0 | 0.00 | 0.00 | 0.00 | 99 | 1013.6 |
| 20260508123450 | 45 | 89 | 2.0 | 5.0 | 0.00 | 0.00 | 0.00 | 99 | 1013.8 |
| 20260508122946 | 45 | 54 | 2.0 | 3.0 | 0.00 | 0.00 | 0.00 | 99 | 1013.4 |
| 20260508122443 | 46 | 49 | 1.0 | 2.0 | 0.00 | 0.00 | 0.00 | 99 | 1013.5 |
| 20260508121940 | 44 | 104 | 0.0 | 2.0 | 0.00 | 0.00 | 0.00 | 99 | 1013.4 |
| 20260508121438 | 42 | 117 | 2.0 | 3.0 | 0.00 | 0.00 | 0.00 | 99 | 1013.6 |